Regional Weather Roundup
Issued by NWS

Home | Current Version | Previous Version | Graphics & Text | Print | Product List | Glossary On
Versions: 1 2 3 4 5 6 7 8 9 10 11 12 13 14 15 16 17 18 19 20 21 22 23 24 25 26 27 28 29 30 31 32 33 34 35 36 37 38 39 40 41 42 43 44 45 46 47 48 49 50
000
ASUS43 KMPX 282001
RWRMN
WEATHER ROUNDUP FOR MINNESOTA
NATIONAL WEATHER SERVICE TWIN CITIES/CHANHASSEN MN
300 PM CDT SUN AUG 28 2016


NOTE: "FAIR" INDICATES FEW OR NO CLOUDS BELOW 12,000 FEET WITH NO
SIGNIFICANT WEATHER AND/OR OBSTRUCTIONS TO VISIBILITY. N/A MEANS
CURRENT SKY AND/OR WEATHER CONDITIONS ARE NOT AVAILABLE.

MNZ060>063-068>070-282100-
   Twin Cities Metro

CITY           SKY/WX    TMP DP  RH WIND       PRES   REMARKS
TWIN CITIES    MOSUNNY   83  67  58 S12       30.11F
ST PAUL        PTSUNNY   82  69  64 S12       30.11F
CRYSTAL        MOSUNNY   83  66  56 S9        30.09F
BLAINE         PTSUNNY   81  73  78 E9        30.11F
LAKEVILLE      MOSUNNY   81  68  65 S6        30.12F
EDEN PRAIRIE   MOSUNNY   85  69  58 S12       30.10F
LAKEVILLE      MOSUNNY   81  68  65 S6        30.12F
SOUTH ST PAUL  PTSUNNY   82  65  56 SE8       30.12S
LAKE ELMO      CLOUDY    79  70  73 SE7       30.14S
$$
MNZ001>005-007-008-013>017-022>024-027-028-282100-
   Northwest Minnesota

CITY           SKY/WX    TMP DP  RH WIND       PRES   REMARKS
BEMIDJI        MOSUNNY   75  64  68 SE13      30.06F
HALLOCK        SUNNY     82  64  54 S14       29.96S
ROSEAU         SUNNY     81  66  61 SE13      30.02F
WARROAD        SUNNY     73  66  78 E12       30.05F
THIEF RVR FALL PTSUNNY   79  63  57 SE17      30.01F
CROOKSTON      SUNNY     81  66  61 S17       29.98F
FOSSTON        SUNNY     79  68  69 SE10      30.03S
DETROIT LAKES  SUNNY     81  64  57 S17G25    30.03F
MOORHEAD       SUNNY     84  66  54 SE17      29.96F
PARK RAPIDS    PTSUNNY   82  64  54 S17G25    30.06F
MAHNOMEN       FAIR      79  66  64 SE10      30.01F
$$
MNZ006-009>011-018-025>026-282100-
   North Central Minnesota

CITY           SKY/WX    TMP DP  RH WIND       PRES   REMARKS
BAUDETTE       PTSUNNY   73  65  75 SE10      30.07F
FLAG ISLAND    CLOUDY    66  63  88 S6        30.06F
INTL FALLS     MOSUNNY   72  63  73 VRB6      30.11F
WASKISH        SUNNY     75  64  69 SE7       30.07F
BIG FORK       SUNNY     75  63  64 SE5       30.11F
LONGVILLE      CLOUDY    79  64  61 SE7       30.09F
GRAND RAPIDS   MOSUNNY   75  61  61 SE9       30.13F
ORR            MOSUNNY   70  61  73 SE5       30.12F
COOK           MOSUNNY   72  63  73 S3        30.15F
WALKER         FAIR      75  64  67 SE7       30.08S
$$
MNZ012-019>021-037-282100-
   Northeast Minnesota

CITY           SKY/WX    TMP DP  RH WIND       PRES   REMARKS
DULUTH         MOSUNNY   72  63  73 SE6       30.16F
ELY            SUNNY     72  61  68 CALM      30.16F
HIBBING        SUNNY     73  62  68 S6        30.14F
EVELETH        MOSUNNY   73  61  65 S5        30.16F
DULUTH HARBOR  SUNNY     70  64  83 NE7       30.16F
TWO HARBORS    MOSUNNY   72  64  78 S3        30.16F
SILVER BAY     MOSUNNY   70  63  78 S6        30.16F
G MARAIS ARPRT SUNNY     66  55  68 S5        30.21S
$$
MNZ029>031-032-039>041-046>048-054>057-064-282100-
   West Central Minnesota

CITY           SKY/WX    TMP DP  RH WIND       PRES   REMARKS
FERGUS FALLS   SUNNY     84  70  61 S20G28    30.00F
WHEATON        SUNNY     84  73  70 SE16G22   29.99F HX  91
MORRIS         SUNNY     88  72  58 S13G18    30.00F HX  94
ALEXANDRIA     MOSUNNY   84  68  58 S16       30.06F
ELBOW LAKE     FAIR      84  72  66 E18       30.01F HAZE    HX  90
WADENA         SUNNY     79  64  61 SE15      30.06S
GLENWOOD       SUNNY     84  70  61 S14       30.07F
APPLETON       SUNNY     84  72  65 SE13G20   30.01F
BENSON         SUNNY     84  70  61 S14G20    30.03F
ORTONVILLE     SUNNY     84  72  65 S12G20    29.99F
MADISON        SUNNY     84  73  70 S16G22    30.01F HX  91
WILLMAR        FAIR      84  72  65 SE10G16   30.08S
$$
MNZ033>034-036-042>043-049>051-058-059-282100-
   Central Minnesota

CITY           SKY/WX    TMP DP  RH WIND       PRES   REMARKS
ST CLOUD       MOSUNNY   79  72  79 SE13      30.09F
SAUK CENTRE    MOCLDY    81  71  72 SE9       30.07F
PAYNESVILLE    SUNNY     83  67  58 S10       30.09S
AITKIN         SUNNY     81  63  54 SE13G18   30.10F
PINE RIVER     MOSUNNY   79  66  65 SE10G18   30.11F
BRAINERD       MOSUNNY   78  65  63 S13       30.10F
STAPLES        SUNNY     79  64  61 S12G17    30.07F
LONG PRAIRIE   CLOUDY    79  70  73 E10       30.08F
LITTLE FALLS   PTSUNNY   73  66  78 SE10      30.10F
LITCHFIELD     MOSUNNY   84  72  65 S7        30.09S
BUFFALO        PTSUNNY   82  67  62 S9        30.11S
MAPLE LAKE     PTSUNNY   81  72  74 S5        30.11S
HUTCHINSON     MOSUNNY   83  72  69 SE8       30.11S
$$
MNZ037-044-045-052-053-282100-
   East Central Minnesota

CITY           SKY/WX    TMP DP  RH WIND       PRES   REMARKS
PRINCETON      PTSUNNY   79  70  73 SE9       30.12S
MORA           MOSUNNY   73  64  73 SE7       30.15F
CAMBRIDGE      PTSUNNY   79  66  65 E6        30.11F
RUSH CITY      PTSUNNY   76  68  75 SE6       30.14F
MOOSE LAKE     PTSUNNY   75  63  64 S6        30.13F
HINCKLEY       CLOUDY    75  68  78 E8        30.14F
CLOQUET        MOSUNNY   73  61  64 SE7       30.15F
MCGREGOR       MOSUNNY   77  64  65 SE10      30.14F
$$
MNZ071>073-080-081-089-090-097-098-282100-
   Southwest Minnesota

CITY           SKY/WX    TMP DP  RH WIND       PRES   REMARKS
MONTEVIDEO     SUNNY     84  73  70 S12       30.05F HX  91
GRANITE FALLS  MOSUNNY   86  75  68 SE15G21   30.06F HX  94
CANBY          SUNNY     87  73  62 SE14G22   30.03F HX  94
MARSHALL       SUNNY     86  74  67 S20       30.04F HX  94
REDWOOD FALLS  MOSUNNY   83  71  67 S18       30.07F
OLIVIA         PTSUNNY   82  70  65 S12G17    30.07F
PIPESTONE      MOSUNNY   82  72  69 S13       30.08F
WINDOM         MOSUNNY   84  72  65 SE13      30.10F
WORTHINGTON    MOSUNNY   83  72  69 S13G22    30.10F
JACKSON          N/A     82  68  61 S12G17    30.11F
TRACY          MOSUNNY   85  74  70 S14G21    30.07F HX  92
SLAYTON        MOSUNNY   84  73  70 S14       30.10F HX  91
$$
MNZ065>067-074>077-082>085-091>093-282100-
   South Central Minnesota

CITY           SKY/WX    TMP DP  RH WIND       PRES   REMARKS
MANKATO        MOSUNNY   82  70  65 S9        30.11F
NEW ULM        SUNNY     82  68  61 S13G20    30.09F
ST JAMES       MOSUNNY   81  64  57 SE8       30.11F
FAIRMONT       MOSUNNY   84  70  62 S14       30.11F
GLENCOE        MOSUNNY   84  73  68 SE9       30.10F HX  90
FARIBAULT      PTSUNNY   82  70  65 SE9       30.13F
OWATONNA       MOSUNNY   82  68  61 S8        30.14S
WASECA         MOSUNNY   79  68  69 SE9       30.14F
ALBERT LEA     MOSUNNY   82  68  61 S10       30.14F
$$
MNZ078>079-086>088-094>096-282100-
   Southeast Minnesota

CITY           SKY/WX    TMP DP  RH WIND       PRES   REMARKS
ROCHESTER      PTSUNNY   81  69  67 S8        30.16F
RED WING       MOSUNNY   82  66  57 S8        30.12F
DODGE CENTER   PTSUNNY   82  66  57 SE9       30.15F
WINONA         MOSUNNY   79  68  69 E8        30.15F
AUSTIN         PTSUNNY   81  68  65 S8        30.14F
PRESTON        MOSUNNY   81  66  60 S7        30.17F
$$
ABBREVIATIONS USED IN REMARKS
   TC - TEMPERATURES IN CELSIUS
  WCI - WIND CHILL INDEX
   HX - HEAT INDEX
  VSB - VISIBILITY
$$




USA.gov is the U.S. government's official web portal to all federal, state and local government web resources and services.